FW1436 Weather Reports


time (UTC)temp
F
wind
direction
speed
knots
gust
knots
rain 1hr
in
rain 24hr
in
rain mn
in
humidity
%
barometer
mb
20260904163018 97 231 0.0 6.1 0.00 0.00 0.00 19 1015.0
20260904161517 97 217 0.9 5.2 0.00 0.00 0.00 18 1015.0
20260904160020 99 212 2.6 5.2 0.00 0.00 0.00 17 1015.0
20260904154515 99 114 0.9 6.1 0.00 0.00 0.00 18 1015.1
20260904153014 98 134 0.9 6.1 0.00 0.00 0.00 19 1015.1
20260904151515 99 155 0.9 3.5 0.00 0.00 0.00 17 1015.2
20260904150029 100 270 1.7 8.7 0.00 0.00 0.00 17 1015.3
20260904144511 100 190 0.9 2.6 0.00 0.00 0.00 18 1015.5
20260904143009 99 84 0.0 3.5 0.00 0.00 0.00 18 1015.5
20260904141515 99 264 1.7 7.8 0.00 0.00 0.00 17 1015.6
20260904140007 99 169 0.9 2.6 0.00 0.00 0.00 18 1015.7
20260904134503 99 295 0.9 7.0 0.00 0.00 0.00 17 1016.0
20260904133006 99 260 0.9 7.0 0.00 0.00 0.00 17 1016.0
20260904131501 100 336 1.7 5.2 0.00 0.00 0.00 16 1016.2
20260904130059 98 277 1.7 7.8 0.00 0.00 0.00 16 1016.4
20260904124613 98 272 1.7 6.1 0.00 0.00 0.00 18 1016.4
20260904123055 97 243 1.7 6.1 0.00 0.00 0.00 19 1016.6
20260904121555 97 274 1.7 5.2 0.00 0.00 0.00 18 1016.7
20260904120055 97 242 2.6 6.1 0.00 0.00 0.00 18 1016.9
20260904114548 97 297 1.7 6.1 0.00 0.00 0.00 19 1017.1
20260904113050 96 293 0.0 4.3 0.00 0.00 0.00 20 1017.3
20260904111544 95 226 0.0 5.2 0.00 0.00 0.00 21 1017.5
20260904110041 94 165 0.9 5.2 0.00 0.00 0.00 21 1017.8
20260904104541 93 223 1.7 4.3 0.00 0.00 0.00 22 1017.9
20260904103044 91 156 0.0 3.5 0.00 0.00 0.00 24 1018.2
20260904101535 91 153 0.0 3.5 0.00 0.00 0.00 25 1018.3
20260904100032 91 258 0.0 1.7 0.00 0.00 0.00 25 1018.3
20260904094529 89 300 0.9 2.6 0.00 0.00 0.00 25 1018.3
20260904093027 87 129 0.0 1.7 0.00 0.00 0.00 27 1018.3
20260904091523 85 127 0.0 0.9 0.00 0.00 0.00 31 1018.2
20260904090017 82 101 0.0 2.6 0.00 0.00 0.00 34 1018.3
20260904084516 81 58 0.0 0.0 0.00 0.00 0.00 37 1018.2
20260904083013 80 103 0.0 0.9 0.00 0.00 0.00 37 1018.2
20260904081508 78 123 0.0 0.9 0.00 0.00 0.00 38 1017.9
20260904080006 76 214 0.0 0.9 0.00 0.00 0.00 43 1018.0
20260904074505 73 229 0.0 0.0 0.00 0.00 0.00 49 1018.1
20260904073005 71 229 0.0 0.0 0.00 0.00 0.00 50 1018.1
20260904071504 71 229 0.0 0.0 0.00 0.00 0.00 46 1018.1
20260904064500 67 229 0.0 0.0 0.00 0.00 0.00 50 1017.7
20260904063105 0 0.0 0.0 0.00 0.00 0.00 1017.7
20260904061553 0 0.0 0.0 0.00 0.00 0.00 1017.6
20260904060048 0 0.0 0.0 0.00 0.00 0.00 1017.2
20260904054545 0 0.0 0.0 0.00 0.00 0.00 1017.2
20260904053041 0 0.0 0.0 0.00 0.00 0.00 1017.2
20260904051555 0 0.0 0.0 0.00 0.00 0.00 1017.1
20260904050031 0 232 0.0 0.0 0.00 0.00 0.00 1017.2
20260904044528 66 229 0.0 0.0 0.00 0.00 0.00 45 1017.2
20260904043027 66 229 0.0 0.0 0.00 0.00 0.00 46 1017.2
20260904041523 68 229 0.0 0.0 0.00 0.00 0.00 44 1017.2
20260904040028 68 229 0.0 2.6 0.00 0.00 0.00 42 1017.3
20260904034520 69 219 0.0 0.0 0.00 0.00 0.00 43 1017.2
20260904033018 69 219 0.0 0.9 0.00 0.00 0.00 41 1017.3
20260904031516 70 219 0.0 0.0 0.00 0.00 0.00 37 1017.5
20260904030016 69 232 0.9 0.9 0.00 0.00 0.00 39 1017.4
20260904024515 68 212 0.0 0.0 0.00 0.00 0.00 45 1017.4
20260904023011 70 213 0.0 0.0 0.00 0.00 0.00 41 1017.2
20260904021510 70 146 0.0 0.0 0.00 0.00 0.00 39 1017.3
20260904020006 70 146 0.0 0.0 0.00 0.00 0.00 42 1017.5
20260904014505 70 146 0.0 0.0 0.00 0.00 0.00 42 1017.6
20260904013006 70 146 0.0 0.0 0.00 0.00 0.00 42 1017.8
20260904011501 71 147 0.0 0.0 0.00 0.00 0.00 42 1017.8
20260904010115 71 147 0.0 0.0 0.00 0.00 0.00 39 1018.0
20260904004557 72 115 0.0 0.9 0.00 0.00 0.00 37 1018.1
20260904003054 73 114 0.0 0.0 0.00 0.00 0.00 40 1018.2
20260904001552 74 227 0.0 0.0 0.00 0.00 0.00 38 1018.0
20260904000055 74 227 0.0 0.9 0.00 0.00 0.00 39 1018.1
20260903234547 75 227 0.0 0.0 0.00 0.00 0.00 36 1018.1
20260903233046 75 217 0.0 0.0 0.00 0.00 0.00 35 1017.9
20260903231543 76 221 0.0 1.7 0.00 0.00 0.00 35 1017.9
20260903230041 75 219 0.0 0.0 0.00 0.00 0.00 39 1017.8
20260903224539 75 217 0.0 0.0 0.00 0.00 0.00 37 1017.7
20260903223039 76 217 0.0 0.9 0.00 0.00 0.00 37 1017.6
20260903221535 76 222 0.0 0.0 0.00 0.00 0.00 35 1017.6
20260903220031 78 223 0.0 0.9 0.00 0.00 0.00 32 1017.8
20260903214530 79 223 0.0 0.9 0.00 0.00 0.00 30 1017.6
20260903213029 79 231 0.0 0.9 0.00 0.00 0.00 31 1017.6
20260903211530 79 250 0.0 1.7 0.00 0.00 0.00 29 1017.6
20260903210029 81 172 0.0 0.0 0.00 0.00 0.00 28 1017.5
20260903204531 83 151 0.0 0.0 0.00 0.00 0.00 27 1017.4
20260903203127 84 152 0.0 0.0 0.00 0.00 0.00 27 1017.3
20260903201526 85 231 0.0 1.7 0.00 0.00 0.00 26 1017.1
20260903200026 86 98 0.0 0.9 0.00 0.00 0.00 24 1016.9
20260903194525 87 82 0.0 0.0 0.00 0.00 0.00 23 1016.8
20260903193024 88 73 0.0 0.9 0.00 0.00 0.00 23 1016.6
20260903191524 89 87 0.0 2.6 0.00 0.00 0.00 22 1016.5
20260903190023 91 89 0.9 1.7 0.00 0.00 0.00 20 1016.2
20260903184522 92 21 0.0 4.3 0.00 0.00 0.00 20 1016.1
20260903183022 94 321 1.7 5.2 0.00 0.00 0.00 19 1016.0
20260903181521 96 357 0.9 7.0 0.00 0.00 0.00 19 1015.9
20260903180030 97 331 1.7 9.6 0.00 0.00 0.00 18 1015.9
20260903174521 98 100 0.9 4.3 0.00 0.00 0.00 20 1015.5
20260903173018 98 153 0.9 5.2 0.00 0.00 0.00 20 1015.6
20260903171518 99 244 0.9 6.1 0.00 0.00 0.00 20 1015.7
20260903170020 99 336 0.9 4.3 0.00 0.00 0.00 19 1015.8
20260903164515 99 95 2.6 8.7 0.00 0.00 0.00 19 1015.7